Vertical_Velocity
5 -1 -14 7 1 -0 1 0 5 -3 5 -5 2 -5 -1 1 -3 -6 4 5 7 4 2 -1 -0 5 -0 2 3 -0 -2 -1 -3 -1 -3 -4 -4 -4 -1 -5 -3 -1 -8 -2
1 -9 -3 2 2 5 7 0 -5 -3 1 7 -4 -1 7 -0 -9 -8 1 0 -2 5 -0 4 4 2 4 2 2 -1 1 -0 -0 -1 -1 0 -1 -2 -1 -3 -2 -2 -3 -6
3 -3 5 4 0 1 6 4 0 -0 -18 -5 -3 -0 3 8 8 17 8 10 4 2 7 5 -3 3 2 -2 2 0 2 -1 -1 -2 -2 -1 -2 -4 -4 -5 -5 -1 -0 -5
2 -7 -1 7 -2 2 3 3 1 -1 -2 -6 -3 -18 -8 -2 0 5 5 2 5 8 4 -1 4 -1 -2 -8 -3 -4 1 -3 -1 3 -0 2 3 -1 -3 -1 -4 -3 -3 -2
-5 6 6 2 5 5 -1 -1 -1 1 0 3 -3 5 -6 3 -7 -3 2 1 4 15 9 9 2 -1 -3 -4 -0 3 -1 -2 -2 -3 -0 2 -2 -3 -2 -6 -3 -3 -3 -4
-18 3 0 -4 6 10 9 3 2 1 3 1 -2 2 -5 -4 -7 -6 -3 0 -1 -2 1 3 7 8 8 -3 -1 3 1 -4 1 3 -0 -2 -1 -2 -4 -1 -1 -3 -2 -3
1 -3 -1 0 3 6 -4 3 -5 -4 0 -5 7 11 -7 -1 -2 -5 -5 -2 6 14 12 -12 -19 -1 3 -1 -4 3 1 2 -0 2 -2 -7 2 -1 0 1 -1 1 -1 -1
-1 -8 -2 2 3 1 2 1 -7 -2 -1 -4 -8 -2 -5 2 1 2 3 -1 -2 1 -1 -2 2 3 6 -2 -3 5 3 0 1 -0 2 -2 1 1 -0 -2 -2 -3 -2 -2
0 -1 9 5 -5 12 4 -1 6 1 4 6 -3 4 3 -1 2 1 1 -5 -4 -17 -6 -2 -7 -1 6 -5 -4 1 -1 -0 2 -0 -1 -2 0 -1 -2 -1 -1 -1 -2 -3
1 1 -9 -5 3 4 5 2 6 4 -1 0 -1 -0 1 -6 -3 -1 -11 -8 -7 -8 -7 -4 -6 0 2 -1 -4 -3 0 2 1 -1 -1 -3 0 0 -1 -1 -1 -3 -2 -2
0 1 -5 -9 2 3 -8 4 6 8 5 -3 -2 -8 -5 2 3 -1 -2 1 -0 3 2 -1 -3 -1 3 -1 -3 1 3 1 1 -1 -2 -3 -0 -0 -1 -1 -2 -1 -1 -1
1 3 1 0 -3 -1 5 -3 11 7 -4 1 3 -30 -4 8 2 1 -1 0 -2 1 1 2 2 -1 3 2 0 1 0 -0 -0 -0 -3 -1 -1 0 0 -1 -2 0 -1 -0
-9 1 -5 -12 -9 -1 7 8 6 5 6 -1 -1 -9 5 4 5 0 -0 3 4 2 -3 2 2 1 2 2 2 0 0 0 1 -2 -2 1 -2 -0 -1 -0 0 -2 0 0
-0 -3 -4 -4 3 -1 -6 7 5 9 0 -1 -8 -12 -4 0 -3 7 -1 -1 4 -3 -2 -4 -5 1 0 3 2 -0 -1 2 -0 -1 -0 -0 -0 -0 -1 0 1 -0 1 -1
0 -4 -3 1 3 -1 -3 -6 -6 14 5 1 -3 -11 -6 -9 -7 2 8 1 -1 -2 -0 1 4 -1 0 2 1 0 -0 1 -1 -1 -1 2 0 -2 -1 -2 -0 -0 -2 -2
-0 -7 -1 -5 -3 2 -4 -7 -2 -4 3 -6 3 -10 1 1 -6 -8 0 -3 5 -0 -4 1 1 -1 0 1 0 -1 0 -0 -1 -1 -0 0 -0 -0 0 -1 -1 -1 -1 -1
2 -0 2 -5 -3 -2 -7 -15 1 1 1 -0 -2 -9 -3 -6 -9 -10 0 2 1 2 5 0 -2 -1 1 0 0 -1 -1 -1 0 2 1 2 1 0 -0 -1 -2 -1 -0 -0
-3 4 10 -0 -5 1 -24 0 3 -1 -4 2 -3 -6 -6 -7 1 4 2 5 1 3 2 -2 -2 0 1 -1 -0 -1 -1 -1 1 1 -1 0 1 -1 -1 -0 -1 -1 -1 0
9 12 4 -0 -2 -14 -30 0 3 6 -14 3 -5 3 -0 6 -4 -3 -0 -2 0 0 -2 -1 0 0 -1 -1 -1 0 1 1 0 -1 1 -1 -0 0 2 -0 -0 0 -0 -1
-0 13 9 4 3 -1 -0 -7 -2 -4 -17 -5 3 1 -5 -4 -1 -5 -1 -1 -1 -3 -1 0 0 -1 -3 -0 0 -1 1 1 1 0 1 0 -1 -1 -0 1 0 -1 0 -0
0 3 -9 1 -1 -14 -15 3 11 8 -8 -3 3 -5 -1 -2 -2 2 0 -3 -1 -2 -0 -0 -0 -1 -1 0 0 1 1 1 0 0 1 0 1 1 1 0 -0 -1 -0 -2
4 6 -5 8 9 -11 -3 3 2 5 2 1 -1 2 -2 0 -1 2 2 -1 -0 -0 -1 -0 -1 -1 -2 -0 -1 0 1 1 1 1 1 1 0 0 -0 0 0 -0 0 2
-4 5 19 5 1 8 5 4 2 -4 -4 2 2 -2 0 3 -1 -0 -1 -1 1 -1 -1 1 -0 -1 -0 1 1 0 1 1 1 1 1 2 1 1 -0 -0 1 0 0 1
3 7 4 0 -4 2 2 1 3 -10 -2 -1 -3 2 1 3 -2 -2 -1 1 1 0 -1 0 -0 -0 1 3 -0 -0 0 1 2 2 1 1 -0 2 -1 1 3 4 1 -1
7 -1 3 -3 1 3 -11 6 4 -11 4 -1 1 1 2 2 2 -0 -3 2 1 1 2 1 -0 -0 -1 3 0 1 1 2 2 1 1 1 2 2 2 -0 -0 0 1 1
9 4 -1 -3 -1 0 -3 -4 6 4 -10 0 1 1 0 2 -0 0 -2 0 0 0 2 3 1 0 0 2 1 2 1 1 2 2 1 -0 2 0 1 3 2 1 0 -0
Height
3113 3111 3111 3114 3115 3115 3115 3114 3112 3112 3111 3109 3108 3108 3109 3109 3108 3109 3108 3105 3103 3103 3106 3107 3107 3106 3105 3103 3102 3100 3098 3097 3095 3093 3091 3089 3087 3084 3081 3078 3075 3071 3068 3064
3109 3103 3109 3109 3109 3110 3111 3110 3108 3106 3106 3106 3103 3099 3101 3103 3103 3102 3102 3099 3096 3096 3098 3101 3102 3102 3101 3100 3098 3096 3093 3091 3090 3088 3086 3084 3081 3078 3076 3072 3068 3064 3059 3056
3104 3104 3104 3104 3104 3104 3104 3103 3102 3101 3099 3101 3096 3092 3093 3096 3097 3094 3093 3093 3089 3087 3091 3095 3097 3097 3098 3096 3094 3092 3089 3086 3084 3082 3081 3079 3077 3074 3070 3067 3063 3060 3055 3049
3099 3100 3100 3099 3100 3101 3098 3098 3097 3097 3095 3098 3098 3092 3086 3087 3087 3085 3083 3083 3082 3080 3083 3088 3091 3094 3093 3092 3091 3089 3086 3083 3081 3079 3077 3076 3073 3070 3067 3064 3058 3056 3050 3044
3096 3096 3096 3096 3097 3097 3095 3093 3093 3093 3092 3092 3091 3094 3081 3082 3082 3079 3077 3077 3077 3078 3079 3083 3087 3089 3090 3088 3086 3085 3081 3078 3077 3075 3075 3072 3069 3066 3064 3060 3055 3051 3046 3041
3089 3093 3093 3094 3094 3094 3092 3092 3091 3090 3089 3088 3085 3088 3079 3078 3077 3075 3073 3073 3074 3076 3080 3085 3086 3086 3085 3084 3081 3079 3076 3076 3073 3072 3070 3068 3065 3062 3060 3056 3052 3048 3044 3039
3086 3086 3089 3091 3089 3090 3091 3090 3090 3092 3090 3085 3082 3082 3077 3075 3073 3072 3073 3074 3075 3078 3081 3084 3084 3083 3081 3078 3075 3073 3071 3070 3068 3067 3065 3063 3061 3058 3056 3052 3049 3045 3041 3037
3083 3083 3084 3084 3084 3083 3083 3086 3087 3086 3087 3084 3083 3078 3075 3074 3074 3074 3074 3077 3080 3080 3080 3081 3079 3077 3074 3073 3070 3068 3067 3065 3064 3062 3060 3058 3057 3054 3051 3048 3045 3042 3038 3034
3081 3080 3080 3080 3080 3081 3081 3082 3083 3082 3081 3080 3078 3074 3074 3074 3074 3074 3076 3076 3077 3077 3077 3074 3077 3074 3070 3068 3067 3065 3063 3061 3059 3058 3056 3054 3052 3050 3047 3045 3042 3038 3035 3032
3077 3075 3078 3078 3078 3081 3079 3080 3080 3078 3078 3076 3072 3071 3069 3070 3073 3071 3073 3074 3073 3073 3073 3071 3071 3069 3065 3063 3062 3061 3059 3058 3056 3054 3052 3050 3048 3046 3044 3041 3038 3036 3032 3029
3073 3072 3073 3075 3075 3075 3076 3075 3075 3074 3072 3070 3072 3065 3066 3068 3069 3068 3067 3069 3068 3068 3067 3066 3064 3062 3060 3059 3057 3056 3054 3053 3051 3049 3048 3046 3045 3043 3041 3038 3035 3033 3030 3027
3070 3068 3066 3069 3070 3072 3072 3071 3071 3068 3067 3064 3064 3056 3062 3063 3063 3063 3063 3063 3064 3064 3062 3060 3059 3057 3056 3054 3052 3050 3049 3047 3046 3044 3043 3042 3041 3039 3037 3035 3032 3030 3028 3024
3067 3066 3066 3064 3068 3066 3064 3065 3066 3064 3062 3060 3062 3057 3058 3060 3059 3059 3059 3058 3057 3057 3056 3054 3053 3051 3050 3049 3047 3045 3044 3042 3041 3039 3038 3038 3038 3036 3034 3032 3030 3027 3025 3022
3062 3062 3062 3061 3063 3062 3060 3059 3060 3060 3060 3057 3051 3050 3052 3054 3053 3053 3053 3052 3050 3049 3048 3047 3045 3044 3043 3043 3042 3040 3039 3038 3036 3036 3035 3036 3035 3033 3032 3029 3027 3025 3023 3021
3057 3056 3057 3056 3056 3056 3055 3053 3052 3052 3052 3051 3041 3043 3045 3045 3042 3040 3042 3043 3043 3042 3040 3038 3037 3037 3036 3036 3036 3035 3035 3034 3033 3032 3033 3033 3032 3031 3029 3027 3025 3023 3021 3019
3053 3051 3050 3048 3051 3050 3046 3046 3043 3042 3042 3039 3037 3034 3039 3037 3035 3033 3034 3035 3036 3034 3033 3031 3031 3031 3031 3031 3031 3031 3031 3030 3030 3030 3030 3030 3029 3028 3026 3025 3023 3022 3020 3018
3050 3048 3047 3043 3047 3045 3038 3034 3034 3033 3033 3033 3030 3030 3030 3029 3029 3028 3029 3030 3029 3028 3027 3026 3026 3025 3025 3025 3026 3026 3026 3027 3027 3028 3028 3028 3027 3026 3025 3023 3022 3021 3019 3017
3044 3044 3044 3042 3044 3041 3029 3028 3028 3028 3027 3027 3025 3025 3025 3025 3024 3024 3025 3024 3024 3023 3022 3022 3021 3020 3020 3021 3022 3023 3023 3024 3025 3026 3025 3025 3025 3024 3023 3022 3021 3020 3018 3017
3035 3038 3039 3041 3040 3032 3025 3024 3025 3024 3021 3020 3020 3020 3019 3021 3020 3021 3020 3020 3020 3020 3019 3017 3016 3016 3017 3018 3019 3020 3021 3022 3023 3023 3023 3023 3023 3022 3022 3021 3020 3019 3018 3016
3027 3030 3036 3037 3035 3029 3021 3020 3020 3019 3015 3013 3015 3016 3016 3016 3016 3017 3017 3017 3016 3015 3014 3013 3013 3013 3014 3015 3016 3017 3018 3019 3020 3020 3020 3020 3020 3020 3020 3019 3019 3018 3017 3015
3026 3027 3027 3028 3028 3020 3016 3019 3018 3018 3017 3012 3012 3013 3013 3013 3014 3014 3013 3012 3011 3011 3010 3010 3011 3011 3012 3013 3014 3014 3015 3016 3016 3017 3017 3018 3018 3018 3018 3017 3017 3016 3015 3013
3025 3023 3020 3022 3023 3015 3013 3013 3014 3013 3011 3011 3011 3011 3011 3011 3010 3010 3009 3008 3008 3007 3007 3007 3008 3008 3009 3010 3011 3011 3012 3013 3013 3014 3014 3015 3015 3015 3015 3015 3015 3014 3013 3012
3018 3016 3011 3012 3011 3010 3010 3009 3009 3009 3009 3008 3009 3008 3008 3007 3007 3007 3006 3005 3004 3004 3003 3004 3004 3005 3006 3007 3008 3008 3009 3009 3010 3011 3011 3012 3012 3012 3012 3012 3012 3011 3010 3009
3014 3013 3011 3008 3002 3003 3003 3004 3004 3004 3004 3005 3005 3005 3005 3004 3003 3003 3003 3002 3001 3000 3001 3001 3002 3003 3004 3005 3005 3005 3005 3006 3006 3007 3007 3008 3009 3009 3009 3009 3009 3008 3006 3004
3010 3008 3004 3001 2999 2995 2991 2994 2998 2999 3000 3001 3001 3001 3001 3000 2999 2999 2998 2998 2998 2997 2998 2999 2999 3000 3001 3002 3002 3002 3002 3002 3003 3003 3004 3005 3006 3006 3005 3005 3004 3003 3002 3000
3004 3003 3001 2998 2995 2993 2993 2993 2997 2996 2996 2997 2997 2997 2997 2996 2995 2995 2993 2994 2994 2995 2995 2996 2997 2998 2998 2999 2999 2999 2999 2999 2999 3000 3001 3001 3002 3002 3002 3001 3000 2998 2997 2995